Location: Asheville, NC
(35.6000°N, 82.5500°W)
Time: 03:50:51
(UTC-04:00)

Envisat - Visible Passes

Search period start: 24 October 2017 00:00
Search period end: 03 November 2017 00:00
Orbit: 764 x 766 km, 98.2° (Epoch: 23 October)

Date Brightness Start Highest point End Pass type
(mag) Time Alt. Az. Time Alt. Az. Time Alt. Az.
24 Oct 5.1 20:51:03 14° N 20:51:03 14° N 20:51:50 10° N visible
26 Oct 5.4 21:17:18 12° N 21:17:18 12° N 21:17:41 10° N visible
27 Oct 5.3 20:40:18 11° N 20:40:18 11° N 20:40:31 10° N visible
